Regional Weather Roundup
Issued by NWS

Home | Current Version | Previous Version | Text Only | Print | Product List | Glossary On
Versions: 1 2 3 4 5 6 7 8 9 10 11 12 13 14 15 16 17 18 19 20 21 22 23 24 25 26 27 28 29 30 31 32 33 34 35 36 37 38 39 40 41 42 43 44 45 46 47 48 49 50
000
ASUS43 KLSX 242059
RWRMO

WEATHER SUMMARY FOR MISSOURI
NATIONAL WEATHER SERVICE SPRINGFIELD MO
400 PM CDT SUN MAY 24 2015

NOTE: "FAIR" INDICATES FEW OR NO CLOUDS BELOW 12,000 FEET WITH NO
       SIGNIFICANT WEATHER AND/OR OBSTRUCTIONS TO VISIBILITY.
       CURRENT SKY AND/OR WEATHER CONDITIONS ARE NOT AVAILABLE FOR
       CHILLICOTHE AND FARMINGTON.

MOZ001>031-035>038-043-044-053-054-242200-
...NORTHERN AND WESTERN MISSOURI...

CITY           SKY/WX    TMP DP  RH WIND       PRES   REMARKS
KANSAS CTY INT CLOUDY    69  64  84 S12       29.86S
KANSAS C DTWN  CLOUDY    72  63  73 S7        29.85S
LEE`S SUMMIT   CLOUDY    68  64  87 S7        29.87S
ST JOSEPH      CLOUDY    70  63  78 S8        29.84S
KIRKSVILLE     HVY RAIN  68  67  96 W5        29.84F FOG

$$
MOZ066>068-077>081-088>096-101>105-242200-
...SOUTHWEST MISSOURI...

CITY           SKY/WX    TMP DP  RH WIND       PRES   REMARKS
SPRINGFIELD    CLOUDY    69  64  84 SW9       29.90F
JOPLIN         CLOUDY    67  64  90 SW6       29.91

$$
MOZ032>034-039>042-045>050-055>058-069>072-242200-
...CENTRAL MISSOURI...

CITY           SKY/WX    TMP DP  RH WIND       PRES   REMARKS
COLUMBIA       TSTM      69  67  93 S14       29.91R FOG
JEFFERSON CITY HVY RAIN  69  65  86 SW15G23   29.89R FOG
ROLLA          PTSUNNY   80  67  64 S15       29.88F
SEDALIA        LGT RAIN  70  64  81 W13G21    29.88S
OSAGE BEACH    CLOUDY    72  66  83 SW10      29.89F

$$
MOZ051-052-059>065-242200-
...EAST CENTRAL MISSOURI...

CITY           SKY/WX    TMP DP  RH WIND       PRES   REMARKS
ST LOUIS INTL  PTSUNNY   85  64  49 S20G29    29.92F
SPIRIT OF STL  PTSUNNY   85  64  49 S9G21     29.89F
ST CHARLES     MOSUNNY   85  62  46 S18G33    29.90F

$$
MOZ072>076-082>087-097>100-106>115-242200-
...SOUTH CENTRAL AND SOUTHEAST MISSOURI...

CITY           SKY/WX    TMP DP  RH WIND       PRES   REMARKS
CAPE GIRARDEAU PTSUNNY   83  66  56 S16G25    29.97F
FARMINGTON     PTSUNNY   81  66  61 S17       30.00F
POPLAR BLUFF   CLOUDY    81  66  60 S20G28    29.95F
WEST PLAINS    CLOUDY    76  66  71 S13G20    29.93F

$$


USA.gov is the U.S. government's official web portal to all federal, state and local government web resources and services.